Panama City Tyndall AFB, FL

2:33 AM CST on November 24, 2017 (GMT -0600)
Tyndall Air Force Base

Weather History for KPAM - October, 2012

Change the Weather History Date:

Monday, October 22, 2012

  Actual Average Record
Temperature  
Mean Temperature 68 °F -  
Max Temperature 79 °F 77 °F 86 °F (2001)
Min Temperature 56 °F 59 °F 43 °F (2011)
Cooling Degree Days 2    
Growing Degree Days 18 (Base 50)    
Moisture  
Dew Point 62 °F    
Average Humidity 87    
Maximum Humidity 100    
Minimum Humidity 61    
Precipitation  
Precipitation 0.00 in - - ()
Sea Level Pressure  
Sea Level Pressure 30.12 in    
Wind  
Wind Speed 4 mph (ENE)    
Max Wind Speed 10 mph    
Max Gust Speed -    
Visibility 10 miles    
Events      
Averages and records for this station are not official NWS values.
T = Trace of Precipitation, MM = Missing Value Source: NWS Daily Summary

Daily Weather History Graph

Daily Weather History Graph

Search for Another Location

Airport or City:

Trip Planner

Search our weather history database for the weather conditions in past years. The results will help you decide how hot, cold, wet, or windy it might be!

Date:

Astronomy

Oct. 22, 2012 Rise Set
Actual Time 6:49 AM CDT 6:03 PM CDT
Civil Twilight 6:24 AM CDT 6:27 PM CDT
Nautical Twilight 5:56 AM CDT 6:55 PM CDT
Astronomical Twilight 5:29 AM CDT 7:23 PM CDT
Moon 1:44 PM CDT (10/22) 12:05 AM CDT (10/22)
Length of Visible Light 12h 03m
Length of Day
11h 14m
First Quarter, 56% of the Moon is Illuminated
Oct 22
First Quarter
Oct 29
Full
Nov 6
Last Quarter
Nov 13
New
Nov 20
First Quarter

Hourly Weather History & Observations

Time (CDT) Temp. Dew Point Humidity Pressure Visibility Wind Dir Wind Speed Gust Speed Precip Events Conditions
12:55 AM 56.5 °F 56.3 °F 99% 30.09 in 10.0 mi Calm Calm - N/A   Clear
1:55 AM 59.5 °F 57.2 °F 92% 30.10 in 10.0 mi ENE 4.6 mph - N/A   Clear
2:55 AM 60.1 °F 57.2 °F 90% 30.09 in 10.0 mi ENE 5.8 mph - N/A   Clear
3:55 AM 59.2 °F 56.7 °F 91% 30.09 in 10.0 mi ENE 5.8 mph - N/A   Clear
4:55 AM 59.0 °F 57.4 °F 94% 30.10 in 10.0 mi ENE 6.9 mph - N/A   Clear
5:55 AM 58.3 °F 57.7 °F 98% 30.12 in 10.0 mi ENE 4.6 mph - N/A   Clear
6:55 AM 57.9 °F 57.6 °F 99% 30.14 in 10.0 mi NE 6.9 mph - N/A   Clear
7:55 AM 58.5 °F 58.1 °F 99% 30.15 in 10.0 mi ENE 4.6 mph - N/A   Clear
8:55 AM 64.2 °F 62.1 °F 93% 30.16 in 10.0 mi East 6.9 mph - N/A   Clear
9:55 AM 70.2 °F 62.2 °F 76% 30.17 in 10.0 mi East 10.4 mph - N/A   Clear
10:55 AM 73.4 °F 62.4 °F 68% 30.17 in 10.0 mi East 9.2 mph - N/A   Clear
11:55 AM 75.7 °F 64.4 °F 68% 30.15 in 10.0 mi East 8.1 mph - N/A   Clear
12:55 PM 76.8 °F 64.4 °F 65% 30.12 in 10.0 mi Variable 6.9 mph - N/A   Clear
1:55 PM 78.4 °F 64.2 °F 62% 30.10 in 10.0 mi East 5.8 mph - N/A   Clear
2:55 PM 79.0 °F 64.6 °F 61% 30.08 in 10.0 mi ESE 3.5 mph - N/A   Clear
3:55 PM 78.4 °F 67.3 °F 68% 30.08 in 10.0 mi WSW 8.1 mph - N/A   Clear
4:55 PM 76.6 °F 67.8 °F 74% 30.08 in 10.0 mi SSW 5.8 mph - N/A   Clear
5:55 PM 73.4 °F 68.0 °F 83% 30.09 in 10.0 mi Calm Calm - N/A   Clear
6:55 PM 67.8 °F 66.9 °F 97% 30.10 in 10.0 mi Calm Calm - N/A   Clear
7:49 PM 64.4 °F 64.4 °F 100% 30.11 in 5.0 mi Calm Calm - N/A   Clear
7:53 PM 64.4 °F 64.4 °F 100% 30.11 in 5.0 mi Calm Calm - N/A   Clear
8:55 PM 63.5 °F 63.5 °F 100% 30.12 in 10.0 mi NNE 4.6 mph - N/A   Clear
9:55 PM 63.7 °F 63.7 °F 100% 30.12 in 10.0 mi Calm Calm - N/A   Clear
10:55 PM 61.5 °F 61.5 °F 100% 30.12 in 10.0 mi Calm Calm - N/A   Clear
11:55 PM 65.5 °F 63.5 °F 93% 30.12 in 10.0 mi East 5.8 mph - N/A   Clear